Crane Lake, MN

2:48 AM CST on January 24, 2018 (GMT -0600)
Crane Lake

Weather History for KCDD - June, 2013

Change the Weather History Date:

Saturday, June 29, 2013

  Actual Average Record
Temperature  
Mean Temperature 62 °F -  
Max Temperature 75 °F 73 °F 93 °F (2002)
Min Temperature 48 °F 51 °F 35 °F (2007)
Degree Days  
Heating Degree Days 2    
Growing Degree Days 12 (Base 50)    
Moisture  
Dew Point 56 °F    
Average Humidity 78    
Maximum Humidity 100    
Minimum Humidity 38    
Precipitation  
Precipitation 0.00 in - - ()
Sea Level Pressure  
Sea Level Pressure 29.97 in    
Wind  
Wind Speed 2 mph (NNE)    
Max Wind Speed 10 mph    
Max Gust Speed -    
Visibility 9 miles    
Events      
Averages and records for this station are not official NWS values.
T = Trace of Precipitation, MM = Missing Value Source: NWS Daily Summary

Daily Weather History Graph

Daily Weather History Graph

Search for Another Location

Airport or City:

Trip Planner

Search our weather history database for the weather conditions in past years. The results will help you decide how hot, cold, wet, or windy it might be!

Date:

Astronomy

Jun. 29, 2013 Rise Set
Actual Time 5:12 AM CDT 9:14 PM CDT
Civil Twilight 4:30 AM CDT 9:55 PM CDT
Nautical Twilight 3:32 AM CDT 10:53 PM CDT
Astronomical Twilight 1:51 AM CDT 12:33 AM CDT
Moon 12:10 AM CDT (6/29) 1:00 PM CDT (6/29)
Length of Visible Light 17h 25m
Length of Day
16h 02m
Waning Gibbous, 55% of the Moon is Illuminated
Jun 29
Waning Gibbous
Jun 29
Last Quarter
Jul 8
New
Jul 15
First Quarter
Jul 22
Full

Hourly Weather History & Observations

Time (CDT) Temp. Dew Point Humidity Pressure Visibility Wind Dir Wind Speed Gust Speed Precip Events Conditions
12:12 AM 59.0 °F 57.2 °F 94% 29.87 in 7.0 mi Calm Calm - N/A   Overcast
12:32 AM 59.0 °F 57.2 °F 94% 29.87 in 7.0 mi Calm Calm - N/A   Overcast
12:52 AM 59.0 °F 57.2 °F 94% 29.87 in 7.0 mi Calm Calm - N/A   Overcast
1:12 AM 59.0 °F 57.2 °F 94% 29.87 in 3.0 mi Calm Calm - N/A   Overcast
1:32 AM 59.0 °F 57.2 °F 94% 29.87 in 7.0 mi Calm Calm - N/A   Overcast
1:52 AM 59.0 °F 57.2 °F 94% 29.87 in 10.0 mi Calm Calm - N/A   Mostly Cloudy
2:12 AM 57.2 °F 57.2 °F 100% 29.87 in 7.0 mi Calm Calm - N/A   Clear
2:32 AM 57.2 °F 55.4 °F 94% 29.87 in 5.0 mi Calm Calm - N/A   Clear
2:52 AM 57.2 °F 55.4 °F 94% 29.87 in 2.5 mi Calm Calm - N/A   Scattered Clouds
3:12 AM 57.2 °F 55.4 °F 94% 29.87 in 2.5 mi NW 3.5 mph - N/A   Clear
3:32 AM 57.2 °F 57.2 °F 100% 29.87 in 10.0 mi NW 3.5 mph - N/A   Clear
3:52 AM 59.0 °F 57.2 °F 94% 29.87 in 10.0 mi Calm Calm - N/A   Clear
4:12 AM 55.4 °F 53.6 °F 94% 29.89 in 7.0 mi Calm Calm - N/A   Clear
4:32 AM 53.6 °F 53.6 °F 100% 29.89 in 5.0 mi Calm Calm - N/A   Clear
4:52 AM 55.4 °F 55.4 °F 100% 29.89 in 10.0 mi Calm Calm - N/A   Clear
5:12 AM 57.2 °F 55.4 °F 94% 29.90 in 10.0 mi Calm Calm - N/A   Clear
5:32 AM 55.4 °F 53.6 °F 94% 29.91 in 10.0 mi Calm Calm - N/A   Clear
5:52 AM 55.4 °F 55.4 °F 100% 29.92 in 10.0 mi Calm Calm - N/A   Clear
6:12 AM 57.2 °F 57.2 °F 100% 29.92 in 10.0 mi Calm Calm - N/A   Clear
6:32 AM 57.2 °F 57.2 °F 100% 29.92 in 10.0 mi NNW 3.5 mph - N/A   Clear
6:52 AM 59.0 °F 57.2 °F 94% 29.93 in 10.0 mi Calm Calm - N/A   Clear
7:12 AM 59.0 °F 59.0 °F 100% 29.94 in 10.0 mi Calm Calm - N/A   Clear
7:32 AM 60.8 °F 59.0 °F 94% 29.94 in 10.0 mi Calm Calm - N/A   Clear
7:52 AM 60.8 °F 60.8 °F 100% 29.95 in 10.0 mi Calm Calm - N/A   Clear
8:12 AM 60.8 °F 60.8 °F 100% 29.95 in 10.0 mi Calm Calm - N/A   Clear
8:32 AM 64.4 °F 62.6 °F 94% 29.95 in 10.0 mi Calm Calm - N/A   Clear
8:52 AM 64.4 °F 62.6 °F 94% 29.96 in 10.0 mi NNE 3.5 mph - N/A   Clear
9:12 AM 64.4 °F 62.6 °F 94% 29.97 in 10.0 mi NNE 4.6 mph - N/A   Clear
9:32 AM 64.4 °F 64.4 °F 100% 29.97 in 10.0 mi NE 6.9 mph - N/A   Clear
9:52 AM 66.2 °F 66.2 °F 100% 29.97 in 10.0 mi NNE 5.8 mph - N/A   Clear
10:12 AM 68.0 °F 66.2 °F 94% 29.98 in 10.0 mi NE 5.8 mph - N/A   Clear
10:32 AM 69.8 °F 68.0 °F 94% 29.98 in 10.0 mi North 5.8 mph - N/A   Clear
10:52 AM 69.8 °F 68.0 °F 94% 29.98 in 10.0 mi NE 8.1 mph - N/A   Clear
11:12 AM 69.8 °F 69.8 °F 100% 29.98 in 10.0 mi North 9.2 mph - N/A   Clear
11:32 AM 69.8 °F 66.2 °F 88% 29.99 in 10.0 mi NE 4.6 mph - N/A   Clear
11:52 AM 69.8 °F 66.2 °F 88% 29.99 in 10.0 mi North 3.5 mph - N/A   Clear
12:12 PM 69.8 °F 66.2 °F 88% 30.00 in 10.0 mi NNE 8.1 mph - N/A   Clear
12:32 PM 69.8 °F 62.6 °F 78% 30.01 in 10.0 mi NNE 8.1 mph - N/A   Clear
12:52 PM 71.6 °F 62.6 °F 73% 30.00 in 10.0 mi North 10.4 mph - N/A   Clear
1:12 PM 71.6 °F 60.8 °F 69% 30.00 in 10.0 mi North 5.8 mph - N/A   Scattered Clouds
1:32 PM 71.6 °F 57.2 °F 60% 30.01 in 10.0 mi NNE 5.8 mph - N/A   Scattered Clouds
1:52 PM 73.4 °F 53.6 °F 50% 30.01 in 10.0 mi North 4.6 mph - N/A   Scattered Clouds
2:12 PM 73.4 °F 53.6 °F 50% 30.01 in 10.0 mi North 4.6 mph - N/A   Scattered Clouds
2:32 PM 73.4 °F 53.6 °F 50% 30.01 in 10.0 mi NNE 3.5 mph - N/A   Clear
2:52 PM 75.2 °F 53.6 °F 47% 30.01 in 10.0 mi Calm Calm - N/A   Clear
3:12 PM 75.2 °F 51.8 °F 44% 30.02 in 10.0 mi NNE 6.9 mph - N/A   Clear
3:32 PM 73.4 °F 50.0 °F 44% 30.02 in 10.0 mi NE 4.6 mph - N/A   Scattered Clouds
3:52 PM 75.2 °F 50.0 °F 41% 30.02 in 10.0 mi NNE 3.5 mph - N/A   Scattered Clouds
4:12 PM 75.2 °F 48.2 °F 38% 30.02 in 10.0 mi NNE 4.6 mph - N/A   Clear
4:32 PM 73.4 °F 48.2 °F 41% 30.02 in 10.0 mi Calm Calm - N/A   Clear
4:52 PM 75.2 °F 50.0 °F 41% 30.02 in 10.0 mi NNE 3.5 mph - N/A   Clear
5:12 PM 73.4 °F 48.2 °F 41% 30.02 in 10.0 mi North 3.5 mph - N/A   Clear
5:32 PM 73.4 °F 48.2 °F 41% 30.01 in 10.0 mi Calm Calm - N/A   Clear
5:52 PM 75.2 °F 48.2 °F 38% 30.01 in 10.0 mi Calm Calm - N/A   Clear
6:12 PM 75.2 °F 48.2 °F 38% 30.01 in 10.0 mi North 3.5 mph - N/A   Clear
6:32 PM 73.4 °F 48.2 °F 41% 30.01 in 10.0 mi Calm Calm - N/A   Clear
6:52 PM 73.4 °F 48.2 °F 41% 30.02 in 7.0 mi Calm Calm - N/A   Clear
7:12 PM 73.4 °F 51.8 °F 47% 30.01 in 7.0 mi Calm Calm - N/A   Clear
7:32 PM 73.4 °F 53.6 °F 50% 30.01 in 10.0 mi Calm Calm - N/A   Clear
7:52 PM 69.8 °F 53.6 °F 56% 30.01 in 10.0 mi Calm Calm - N/A   Clear
8:12 PM 66.2 °F 53.6 °F 64% 30.01 in 10.0 mi Calm Calm - N/A   Clear
8:32 PM 62.6 °F 51.8 °F 68% 30.01 in 10.0 mi Calm Calm - N/A   Clear
8:52 PM 59.0 °F 51.8 °F 77% 30.02 in 10.0 mi Calm Calm - N/A   Clear
9:12 PM 57.2 °F 51.8 °F 82% 30.02 in 7.0 mi Calm Calm - N/A   Clear
9:32 PM 55.4 °F 50.0 °F 82% 30.03 in 7.0 mi Calm Calm - N/A   Clear
9:52 PM 53.6 °F 48.2 °F 82% 30.03 in 7.0 mi Calm Calm - N/A   Clear
10:12 PM 53.6 °F 48.2 °F 82% 30.03 in 7.0 mi Calm Calm - N/A   Clear
10:32 PM 51.8 °F 48.2 °F 88% 30.03 in 7.0 mi Calm Calm - N/A   Clear
10:52 PM 51.8 °F 48.2 °F 88% 30.03 in 7.0 mi Calm Calm - N/A   Clear
11:12 PM 51.8 °F 48.2 °F 88% 30.04 in 7.0 mi Calm Calm - N/A   Clear
11:32 PM 50.0 °F 46.4 °F 87% 30.04 in 7.0 mi Calm Calm - N/A   Clear
11:52 PM 48.2 °F 46.4 °F 93% 30.04 in 5.0 mi Calm Calm - N/A   Clear